Regional Weather Roundup
Issued by NWS Bismarck, ND

Home | Current Version | Previous Version | Graphics & Text | Print | Product List | Glossary On
Versions: 1 2 3 4 5 6 7 8 9 10 11 12 13 14 15 16 17 18 19 20 21 22 23 24 25 26 27 28 29 30 31 32 33 34 35 36 37 38 39 40 41 42 43 44 45 46 47 48 49 50
000
ASUS43 KBIS 031902
RWRBIS

NWR BROADCAST TEXT
NATIONAL WEATHER SERVICE BISMARCK ND
200 PM CDT MON AUG 03 2020

NOTE: "FAIR" INDICATES FEW OR NO CLOUDS BELOW 12,000 FEET WITH NO
SIGNIFICANT WEATHER AND/OR OBSTRUCTIONS TO VISIBILITY.


CITY           SKY/WX    TMP DP  RH WIND       PRES   REMARKS
WILLISTON      FAIR      81  47  30 SE16G36   30.11F
MINOT          SUNNY     78  47  33 SE15G23   30.16F
MINOT AFB      SUNNY     76  49  37 SE10      30.15F
BISMARCK       SUNNY     81  47  30 S16G25    30.17F
DICKINSON      SUNNY     78  49  35 SE18G31   30.11F
GARRISON         N/A     75  51  43 S10G20    30.16F
HETTINGER ARPT SUNNY     77  49  37 SE20G30   30.13F
JAMESTOWN      MOSUNNY   74  52  46 MISG      30.19F
CARRINGTON     FAIR      75  46  35 VRB5G15   30.22F
HAZEN          FAIR      77  52  41 SE15G24   30.16F
MANDAN         FAIR      75  50  41 E13G20    30.18F
OAKES          FAIR      73  52  46 VRB6      30.20S
RUGBY          FAIR      73  52  46 SE6G14    30.19F
STANLEY        FAIR      73  52  46 SE15G23   30.16F
TIOGA          FAIR      75  50  41 SE21G28   30.14F
WATFORD CITY   FAIR      77  50  38 SE20G28   30.10F
$$

CITY           SKY/WX    TMP DP  RH WIND       PRES   REMARKS
GRAND FORKS    MOSUNNY   75  48  38 VRB6      30.20F
GRAND FORKS AF MOSUNNY   75  52  44 SE7       30.20F
DEVILS LAKE    MOSUNNY   73  49  42 SE9       30.21F
FARGO          SUNNY     74  51  44 NE13G18   30.19F
CANDO          MOCLDY    72  52  49 CALM      30.23S
CAVALIER       FAIR      75  48  38 NE7       30.20F
GRAFTON        FAIR      73  50  43 CALM      30.22F
GWINNER        PTCLDY    75  54  46 VRB6G14   30.19F
LANGDON        FAIR      77  50  38 SE5       30.22F
ROLLA          MOCLDY    72  50  46 VRB6      30.22F
WALHALLA       FAIR      75  52  43 VRB6      30.20F
$$

CITY           SKY/WX    TMP DP  RH WIND       PRES   REMARKS
ABERDEEN       MOSUNNY   74  47  38 NE5       30.19F
MOBRIDGE       SUNNY     76  50  40 SE7G17    30.15F
BUFFALO          N/A     80  51  36 SE21G37   30.06F
RAPID CITY     SUNNY     80  53  39 SE17G28   30.10F
GLASGOW        SUNNY     87  50  27 SE17G28   29.96F
SIDNEY         SUNNY     84  49  29 SE17G24   30.05F
WOLF POINT     SUNNY     85  50  29 SE12G23   29.99F
GLENDIVE       SUNNY     84  51  31 S15       30.03F
MILES CITY     MOSUNNY   87  53  31 SE14G24   29.96F
BAKER          SUNNY     82  50  32 SE29G38   30.06F
$$

CITY           SKY/WX    TMP DP  RH WIND       PRES   REMARKS
BILLINGS       PTSUNNY   86  51  29 NW15      30.01R
GREAT FALLS    PTSUNNY   80  46  30 N8        29.99F
$$





USA.gov is the U.S. government's official web portal to all federal, state and local government web resources and services.